User: anonymous   Login
Location: Unspecified
(0.0000°N, 0.0000°E)
Time: 04:37:25
(UTC+00:00)
Language:

PRATHAM - Orbit

View from above orbital plane
View from above orbital plane
View from above satellite
View from above satellite

Ground track
Ground track

The orbit data is extracted from the following two-line orbital elements,

1 41783U 16059A   17324.59200536 +.00000132 +00000-0 +35047-4 0  9990
2 41783 098.1483 024.1892 0034228 032.4168 327.9127 14.62880410061469
Epoch (UTC): 20 November 2017 14:12:29
Eccentricity: 0.0034228
inclination: 98.1483°
perigee height: 660 km
apogee height: 708 km
right ascension of ascending node: 24.1892°
argument of perigee: 32.4168°
revolutions per day: 14.62880410
mean anomaly at epoch: 327.9127°
orbit number at epoch: 6146

The dashed part of the orbit path shows where the satellite is in the earth's shadow,  

DLR